Weather History for Houghton Lake, MI

Change the Weather History Date:

Tuesday, June 4, 2013

  Actual Average Record
Temperature  
Mean Temperature 53 °F 60 °F  
Max Temperature 68 °F 72 °F 101 °F (1934)
Min Temperature 37 °F 47 °F 28 °F (1950)
Degree Days  
Heating Degree Days 12 6  
Month to date heating degree days 38 27  
Since 1 June heating degree days 38 27  
Since 1 July heating degree days 7602 8046  
Cooling Degree Days 0 1  
Month to date cooling degree days 7 4  
Year to date cooling degree days 47 20  
Since 1 June cooling degree days 7 4  
Growing Degree Days 2 (Base 50)    
Moisture  
Dew Point 36 °F    
Average Humidity 59    
Maximum Humidity 100    
Minimum Humidity 18    
Precipitation  
Precipitation T in 0.11 in 1.45 in (1925)
Month to date precipitation 0.15 0.42  
Year to date precipitation 16.09 10.28  
Sea Level Pressure  
Sea Level Pressure 30.19 in    
Wind  
Wind Speed 4 mph (North)    
Max Wind Speed 13 mph    
Max Gust Speed 17 mph    
Visibility 8 miles    
Events Fog , Rain    
T = Trace of Precipitation, MM = Missing Value Source: NWS Daily Summary

Daily Weather History Graph

Daily Weather History Graph

Search for Another Location

Airport:

Trip Planner

Search our weather history database for the weather conditions in past years. The results will help you decide how hot, cold, wet, or windy it might be!

Date:

Astronomy

Jun. 04, 2013 Rise Set
Actual Time 5:56 AM EDT 9:18 PM EDT
Civil Twilight 5:20 AM EDT 9:54 PM EDT
Nautical Twilight 4:33 AM EDT 10:41 PM EDT
Astronomical Twilight 3:34 AM EDT 11:40 PM EDT
Moon 3:33 AM EDT (6/4) 5:40 PM EDT (6/4)
Length of Visible Light 16h 34m
Length of Day
15h 22m
Waning Crescent, 14% of the Moon is Illuminated
Jun 4
Waning Crescent
Jun 8
New
Jun 16
First Quarter
Jun 23
Full
Jun 30
Last Quarter

Hourly Weather History & Observations

Time (EDT) Temp. Windchill Dew Point Humidity Pressure Visibility Wind Dir Wind Speed Gust Speed Precip Events Conditions
12:53 AM 46.9 °F - 37.9 °F 71% 30.15 in 10.0 mi North 4.6 mph - N/A   Clear
1:53 AM 45.0 °F 42.6 °F 37.9 °F 76% 30.16 in 10.0 mi North 4.6 mph - N/A   Clear
2:53 AM 41.0 °F 39.0 °F 39.0 °F 93% 30.17 in 10.0 mi North 3.5 mph - N/A   Clear
3:53 AM 39.0 °F - 39.0 °F 100% 30.17 in 10.0 mi Calm Calm - N/A   Clear
4:53 AM 37.9 °F 35.5 °F 37.0 °F 97% 30.18 in 10.0 mi East 3.5 mph - N/A   Clear
5:30 AM 37.4 °F - 37.4 °F 100% 30.17 in 1.8 mi Calm Calm - N/A   Clear
5:32 AM 37.4 °F - 37.4 °F 100% 30.17 in 1.0 mi Calm Calm - N/A   Clear
5:39 AM 37.4 °F - 35.6 °F 93% 30.17 in 0.5 mi Calm Calm - N/A Fog Fog
5:53 AM 37.0 °F - 35.1 °F 93% 30.19 in 0.2 mi Calm Calm - N/A Fog Fog
6:09 AM 37.4 °F - 35.6 °F 93% 30.18 in 0.2 mi Calm Calm - N/A Fog Fog
6:34 AM 37.4 °F - 37.4 °F 100% 30.18 in 2.0 mi Calm Calm - N/A   Partly Cloudy
6:42 AM 37.4 °F - 37.4 °F 100% 30.19 in 9.0 mi Calm Calm - N/A   Partly Cloudy
6:53 AM 37.9 °F - 37.9 °F 100% 30.21 in 10.0 mi Calm Calm - N/A   Clear
7:53 AM 48.0 °F - 37.9 °F 68% 30.21 in 10.0 mi NE 3.5 mph - N/A   Clear
8:53 AM 53.1 °F - 30.0 °F 41% 30.23 in 10.0 mi ENE 4.6 mph - N/A   Clear
9:53 AM 55.9 °F - 30.0 °F 37% 30.23 in 10.0 mi Variable 4.6 mph - N/A   Clear
10:53 AM 60.1 °F - 30.0 °F 32% 30.22 in 10.0 mi Calm Calm - N/A   Clear
11:53 AM 63.0 °F - 28.0 °F 27% 30.21 in 10.0 mi Variable 4.6 mph - N/A   Clear
12:53 PM 64.0 °F - 28.9 °F 27% 30.21 in 10.0 mi West 8.1 mph - N/A   Clear
1:53 PM 66.0 °F - 21.9 °F 19% 30.20 in 10.0 mi SW 6.9 mph - N/A   Clear
2:53 PM 66.9 °F - 27.0 °F 22% 30.21 in 10.0 mi West 6.9 mph - N/A   Clear
3:53 PM 66.0 °F - 28.0 °F 24% 30.20 in 10.0 mi West 3.5 mph - N/A   Partly Cloudy
4:53 PM 64.9 °F - 33.1 °F 31% 30.19 in 10.0 mi NW 3.5 mph - N/A   Overcast
5:53 PM 63.0 °F - 37.0 °F 38% 30.20 in 10.0 mi NNW 8.1 mph 17.3 mph N/A   Mostly Cloudy
6:53 PM 61.0 °F - 37.9 °F 42% 30.20 in 10.0 mi NNW 9.2 mph - N/A   Scattered Clouds
7:53 PM 60.1 °F - 42.1 °F 51% 30.19 in 10.0 mi North 4.6 mph - 0.00 in   Mostly Cloudy
8:53 PM 57.0 °F - 44.1 °F 62% 30.21 in 10.0 mi North 4.6 mph - 0.00 in Rain Light Rain
9:53 PM 55.0 °F - 45.0 °F 69% 30.22 in 10.0 mi NE 3.5 mph - 0.00 in   Overcast
10:53 PM 54.0 °F - 42.1 °F 64% 30.21 in 10.0 mi East 4.6 mph - N/A   Overcast
11:53 PM 52.0 °F - 42.1 °F 69% 30.21 in 10.0 mi ESE 4.6 mph - N/A   Overcast